Precipitable_Water
0.59 0.60 0.60 0.59 0.59 0.56 0.53 0.50 0.47 0.46 0.46 0.44 0.45 0.44 0.44 0.43 0.42 0.42 0.41 0.42 0.43 0.44 0.46 0.47 0.47 0.46 0.46 0.47 0.46 0.46 0.46 0.39 0.33 0.32 0.29 0.32 0.33 0.42 0.45 0.49 0.63 0.79 0.86 0.87 0.86 0.81 0.76 0.84 0.84 0.94 0.89 0.89 0.80 0.80 0.97 1.02 1.18 1.10 0.87 0.77 0.71 0.72 0.68 0.73 0.72 0.77 0.80 0.76 0.85 0.84 0.86 0.81 0.75 0.81 0.81 0.91 0.82 0.85 0.84 0.87 0.95 1.05 1.04 1.14 1.19 1.29 1.34 1.40
0.58 0.58 0.58 0.58 0.57 0.58 0.57 0.54 0.50 0.48 0.46 0.44 0.44 0.44 0.45 0.45 0.44 0.42 0.42 0.42 0.43 0.44 0.45 0.47 0.48 0.47 0.47 0.46 0.46 0.47 0.44 0.36 0.29 0.26 0.25 0.36 0.39 0.41 0.43 0.45 0.58 0.68 0.75 0.72 0.65 0.65 0.69 0.73 0.82 0.83 0.84 0.72 0.86 0.71 0.94 0.91 1.12 0.92 0.85 0.79 0.70 0.72 0.75 0.80 0.79 0.84 0.79 0.80 0.90 0.91 0.91 0.87 0.81 0.82 0.78 0.69 0.69 0.72 0.72 0.81 0.87 0.89 1.02 1.12 1.16 1.23 1.28 1.31
0.57 0.57 0.57 0.56 0.56 0.55 0.56 0.56 0.54 0.51 0.48 0.47 0.46 0.45 0.44 0.44 0.44 0.44 0.43 0.41 0.40 0.41 0.43 0.45 0.47 0.48 0.47 0.47 0.46 0.47 0.43 0.30 0.27 0.25 0.33 0.43 0.42 0.41 0.44 0.43 0.48 0.62 0.61 0.62 0.62 0.61 0.64 0.73 0.83 0.76 0.79 0.66 0.72 0.64 0.73 0.95 0.99 0.95 0.83 0.76 0.74 0.80 0.78 0.82 0.83 0.84 0.89 0.90 0.90 0.91 0.91 0.91 0.91 0.87 0.79 0.71 0.66 0.68 0.66 0.66 0.77 0.80 0.84 0.96 1.06 1.14 1.21 1.24
0.56 0.56 0.56 0.56 0.55 0.54 0.53 0.54 0.54 0.53 0.52 0.50 0.48 0.46 0.45 0.44 0.44 0.44 0.43 0.42 0.41 0.41 0.43 0.44 0.46 0.47 0.48 0.45 0.46 0.48 0.40 0.28 0.19 0.27 0.37 0.46 0.47 0.46 0.45 0.43 0.47 0.54 0.60 0.63 0.63 0.60 0.65 0.76 0.81 0.72 0.69 0.56 0.58 0.59 0.67 0.87 0.83 0.93 0.85 0.74 0.79 0.80 0.77 0.80 0.83 0.85 0.90 0.96 0.94 0.94 0.97 0.90 0.89 0.91 0.75 0.75 0.62 0.61 0.70 0.72 0.69 0.73 0.85 0.91 0.99 1.06 1.14 1.16
0.55 0.55 0.54 0.55 0.55 0.55 0.53 0.51 0.51 0.50 0.51 0.51 0.50 0.48 0.47 0.46 0.44 0.43 0.42 0.41 0.42 0.42 0.43 0.44 0.45 0.47 0.47 0.46 0.43 0.47 0.32 0.15 0.19 0.30 0.47 0.49 0.46 0.49 0.48 0.44 0.50 0.52 0.60 0.57 0.60 0.57 0.56 0.61 0.73 0.67 0.61 0.52 0.50 0.55 0.57 0.77 0.88 0.90 0.83 0.84 0.85 0.82 0.79 0.82 0.82 0.83 0.89 0.97 0.97 0.96 0.90 0.91 1.03 0.96 0.75 0.76 0.58 0.54 0.70 0.74 0.83 0.88 0.89 0.90 0.93 1.01 1.08 1.10
0.54 0.55 0.54 0.53 0.54 0.54 0.54 0.52 0.50 0.49 0.48 0.48 0.48 0.48 0.48 0.47 0.46 0.44 0.43 0.42 0.42 0.43 0.44 0.45 0.46 0.47 0.48 0.46 0.43 0.41 0.26 0.11 0.26 0.35 0.43 0.48 0.48 0.51 0.50 0.46 0.51 0.52 0.48 0.45 0.45 0.46 0.47 0.48 0.58 0.54 0.54 0.51 0.47 0.48 0.54 0.63 0.83 0.71 0.82 0.83 0.86 0.84 0.81 0.81 0.78 0.76 0.86 0.89 0.91 0.91 0.95 1.03 0.94 0.88 0.87 0.77 0.74 0.71 0.80 0.81 0.87 0.94 0.95 0.96 0.98 0.99 1.01 1.04
0.54 0.54 0.54 0.53 0.52 0.52 0.53 0.53 0.51 0.50 0.48 0.47 0.46 0.46 0.46 0.46 0.46 0.45 0.44 0.43 0.43 0.43 0.44 0.46 0.47 0.50 0.47 0.48 0.44 0.33 0.21 0.18 0.26 0.38 0.39 0.43 0.46 0.56 0.55 0.50 0.50 0.49 0.43 0.38 0.39 0.41 0.42 0.43 0.47 0.48 0.49 0.47 0.47 0.48 0.50 0.56 0.71 0.72 0.76 0.79 0.80 0.82 0.76 0.73 0.69 0.70 0.81 0.84 0.87 0.95 0.99 0.93 0.90 0.83 0.90 0.84 0.77 0.74 0.83 0.86 0.92 0.97 1.01 1.02 0.96 0.95 0.96 1.00
0.53 0.53 0.53 0.53 0.52 0.52 0.52 0.51 0.51 0.49 0.49 0.47 0.47 0.47 0.45 0.45 0.45 0.44 0.44 0.45 0.45 0.45 0.46 0.47 0.50 0.50 0.50 0.43 0.32 0.23 0.20 0.17 0.24 0.41 0.39 0.44 0.52 0.56 0.58 0.53 0.46 0.47 0.39 0.35 0.36 0.38 0.40 0.41 0.43 0.47 0.44 0.43 0.45 0.48 0.49 0.54 0.60 0.59 0.69 0.77 0.77 0.72 0.70 0.67 0.69 0.69 0.77 0.87 0.93 0.91 0.89 0.90 0.90 0.90 0.88 0.90 0.87 0.80 0.75 0.88 0.94 0.95 0.96 0.97 0.96 0.94 0.98 1.01
0.53 0.52 0.52 0.52 0.51 0.51 0.51 0.50 0.49 0.48 0.47 0.47 0.47 0.46 0.45 0.44 0.43 0.43 0.43 0.45 0.45 0.46 0.48 0.50 0.51 0.52 0.55 0.44 0.27 0.19 0.15 0.24 0.28 0.39 0.48 0.43 0.47 0.56 0.63 0.49 0.52 0.42 0.36 0.36 0.38 0.37 0.37 0.39 0.43 0.43 0.41 0.44 0.45 0.46 0.48 0.50 0.48 0.59 0.68 0.76 0.74 0.69 0.68 0.66 0.68 0.70 0.76 0.85 0.86 0.83 0.83 0.87 0.89 0.98 0.82 0.91 0.97 0.91 0.84 0.87 0.90 0.90 0.89 0.91 0.94 0.97 0.99 1.01
0.53 0.52 0.52 0.52 0.51 0.50 0.50 0.49 0.48 0.47 0.46 0.45 0.45 0.45 0.45 0.44 0.43 0.42 0.42 0.43 0.44 0.48 0.51 0.53 0.55 0.52 0.47 0.36 0.26 0.16 0.22 0.27 0.34 0.40 0.46 0.45 0.43 0.44 0.45 0.44 0.49 0.42 0.34 0.35 0.37 0.37 0.35 0.39 0.41 0.44 0.44 0.42 0.42 0.45 0.47 0.49 0.49 0.63 0.66 0.68 0.62 0.64 0.64 0.69 0.68 0.70 0.79 0.83 0.85 0.79 0.78 0.83 0.92 0.81 0.71 0.88 1.01 1.10 0.87 0.83 0.87 0.85 0.83 0.89 0.94 0.98 1.02 1.02
0.55 0.53 0.52 0.52 0.50 0.50 0.49 0.48 0.47 0.45 0.45 0.44 0.43 0.43 0.43 0.43 0.43 0.42 0.42 0.42 0.45 0.49 0.54 0.55 0.57 0.54 0.39 0.38 0.23 0.17 0.33 0.27 0.35 0.44 0.43 0.43 0.38 0.37 0.38 0.44 0.46 0.40 0.34 0.34 0.33 0.36 0.38 0.39 0.42 0.41 0.44 0.41 0.44 0.43 0.47 0.51 0.56 0.57 0.60 0.62 0.65 0.68 0.69 0.71 0.68 0.70 0.80 0.80 0.88 0.84 0.81 0.89 0.91 0.81 0.77 0.82 0.99 1.09 0.97 0.83 0.81 0.83 0.83 0.87 0.93 0.96 1.03 1.05
0.55 0.54 0.52 0.52 0.50 0.49 0.49 0.48 0.46 0.45 0.44 0.43 0.42 0.41 0.42 0.42 0.42 0.42 0.41 0.43 0.49 0.54 0.55 0.57 0.58 0.56 0.49 0.36 0.25 0.21 0.32 0.28 0.37 0.43 0.42 0.39 0.37 0.40 0.43 0.45 0.45 0.39 0.32 0.29 0.31 0.35 0.38 0.37 0.41 0.41 0.34 0.42 0.42 0.43 0.48 0.54 0.55 0.56 0.58 0.54 0.62 0.64 0.61 0.65 0.63 0.72 0.79 0.79 0.85 0.87 0.83 0.76 0.78 0.69 0.85 0.88 0.97 1.03 1.03 0.93 0.84 0.82 0.83 0.87 0.91 0.96 0.99 1.01
0.53 0.52 0.52 0.51 0.51 0.50 0.49 0.48 0.46 0.45 0.43 0.43 0.42 0.41 0.40 0.41 0.41 0.40 0.42 0.47 0.56 0.59 0.59 0.59 0.58 0.57 0.46 0.27 0.28 0.35 0.36 0.37 0.36 0.36 0.36 0.39 0.41 0.45 0.47 0.46 0.44 0.41 0.34 0.29 0.30 0.33 0.37 0.40 0.40 0.36 0.35 0.45 0.41 0.41 0.47 0.55 0.55 0.58 0.60 0.56 0.60 0.59 0.58 0.64 0.70 0.78 0.76 0.85 0.86 0.87 0.57 0.60 0.72 0.80 0.88 0.94 0.94 0.96 1.00 1.00 0.90 0.87 0.85 0.86 0.88 0.93 0.96 1.01
0.51 0.51 0.50 0.50 0.50 0.49 0.49 0.48 0.47 0.44 0.43 0.43 0.42 0.40 0.41 0.41 0.40 0.40 0.46 0.53 0.59 0.60 0.59 0.61 0.61 0.51 0.42 0.26 0.33 0.39 0.37 0.38 0.38 0.38 0.40 0.47 0.41 0.41 0.46 0.46 0.46 0.42 0.37 0.33 0.32 0.36 0.36 0.39 0.38 0.38 0.41 0.43 0.40 0.50 0.48 0.51 0.56 0.54 0.59 0.59 0.55 0.50 0.50 0.65 0.67 0.77 0.69 0.87 0.87 0.86 0.60 0.58 0.65 0.78 0.89 0.97 0.95 0.90 0.90 0.98 0.99 0.92 0.88 0.85 0.87 0.89 0.92 0.97
0.49 0.48 0.48 0.48 0.48 0.47 0.47 0.47 0.46 0.44 0.43 0.42 0.41 0.40 0.41 0.40 0.41 0.46 0.53 0.57 0.60 0.60 0.61 0.63 0.60 0.47 0.33 0.31 0.44 0.53 0.47 0.41 0.37 0.41 0.47 0.41 0.39 0.36 0.39 0.45 0.41 0.37 0.34 0.34 0.32 0.34 0.36 0.37 0.37 0.36 0.38 0.43 0.47 0.45 0.43 0.50 0.53 0.57 0.55 0.49 0.52 0.49 0.54 0.67 0.71 0.73 0.63 0.78 0.91 0.82 0.64 0.64 0.67 0.76 0.92 0.97 0.94 0.92 0.88 0.95 0.99 0.99 0.94 0.89 0.86 0.86 0.88 0.94
0.49 0.47 0.45 0.46 0.45 0.45 0.45 0.44 0.44 0.43 0.42 0.41 0.40 0.40 0.38 0.40 0.45 0.56 0.59 0.59 0.57 0.61 0.67 0.54 0.48 0.44 0.31 0.23 0.40 0.54 0.51 0.36 0.38 0.46 0.49 0.43 0.40 0.36 0.41 0.43 0.42 0.35 0.30 0.29 0.31 0.31 0.34 0.36 0.32 0.33 0.33 0.40 0.38 0.39 0.41 0.43 0.49 0.55 0.53 0.51 0.51 0.49 0.59 0.62 0.66 0.75 0.78 0.80 0.86 0.80 0.65 0.69 0.69 0.86 0.95 1.00 0.95 0.90 0.89 0.94 0.98 0.99 0.99 0.97 0.89 0.86 0.88 0.91
0.48 0.46 0.46 0.44 0.43 0.42 0.41 0.41 0.41 0.41 0.41 0.39 0.40 0.37 0.37 0.44 0.54 0.61 0.66 0.63 0.60 0.65 0.59 0.48 0.51 0.50 0.22 0.44 0.47 0.30 0.34 0.41 0.45 0.46 0.48 0.44 0.42 0.40 0.39 0.41 0.36 0.33 0.30 0.29 0.27 0.27 0.30 0.29 0.34 0.36 0.35 0.34 0.35 0.38 0.34 0.37 0.43 0.47 0.53 0.52 0.55 0.48 0.54 0.53 0.67 0.73 0.78 0.77 0.72 0.81 0.73 0.74 0.81 0.92 0.97 0.99 0.98 0.94 0.88 0.91 0.95 0.99 1.00 1.01 0.98 0.89 0.86 0.87
0.47 0.46 0.46 0.44 0.42 0.40 0.40 0.40 0.39 0.39 0.39 0.38 0.37 0.36 0.37 0.48 0.57 0.61 0.60 0.64 0.66 0.60 0.60 0.63 0.53 0.40 0.29 0.40 0.27 0.27 0.40 0.39 0.41 0.41 0.39 0.43 0.45 0.42 0.39 0.38 0.38 0.34 0.28 0.23 0.25 0.20 0.25 0.24 0.31 0.27 0.30 0.32 0.34 0.34 0.31 0.31 0.38 0.43 0.48 0.47 0.52 0.52 0.55 0.53 0.55 0.65 0.73 0.77 0.72 0.75 0.72 0.75 0.85 0.93 0.96 0.98 1.02 0.98 0.95 0.94 0.95 0.96 0.99 1.01 1.00 0.96 0.88 0.85
0.48 0.47 0.45 0.44 0.41 0.40 0.39 0.39 0.38 0.38 0.38 0.38 0.35 0.38 0.47 0.55 0.59 0.58 0.54 0.53 0.42 0.37 0.25 0.37 0.35 0.18 0.21 0.26 0.37 0.30 0.33 0.38 0.39 0.35 0.34 0.41 0.46 0.45 0.42 0.44 0.42 0.33 0.24 0.18 0.17 0.19 0.21 0.22 0.26 0.25 0.24 0.25 0.28 0.32 0.32 0.39 0.44 0.47 0.50 0.48 0.51 0.46 0.48 0.51 0.60 0.72 0.71 0.69 0.66 0.71 0.69 0.71 0.78 0.89 0.95 1.00 1.03 1.01 1.01 1.04 1.02 1.00 0.98 1.00 1.00 0.99 0.94 0.88
0.49 0.47 0.46 0.44 0.41 0.39 0.39 0.38 0.37 0.37 0.40 0.34 0.29 0.32 0.38 0.38 0.35 0.36 0.43 0.42 0.28 0.23 0.22 0.23 0.34 0.26 0.24 0.26 0.28 0.31 0.36 0.34 0.26 0.29 0.33 0.44 0.41 0.38 0.37 0.39 0.38 0.34 0.26 0.15 0.18 0.16 0.18 0.16 0.18 0.18 0.22 0.25 0.28 0.33 0.37 0.42 0.45 0.49 0.52 0.50 0.49 0.47 0.48 0.54 0.59 0.71 0.76 0.70 0.65 0.69 0.73 0.76 0.78 0.83 0.94 0.99 1.03 1.02 1.03 1.01 1.03 1.04 0.99 0.97 0.98 0.97 0.97 0.94
0.50 0.47 0.46 0.44 0.42 0.39 0.38 0.38 0.37 0.37 0.41 0.34 0.32 0.30 0.20 0.20 0.16 0.16 0.20 0.20 0.22 0.24 0.22 0.20 0.19 0.20 0.21 0.26 0.29 0.28 0.24 0.26 0.29 0.27 0.32 0.44 0.41 0.36 0.31 0.34 0.32 0.26 0.26 0.20 0.19 0.18 0.18 0.13 0.16 0.18 0.22 0.25 0.27 0.32 0.36 0.41 0.42 0.45 0.48 0.47 0.45 0.45 0.45 0.51 0.57 0.72 0.78 0.65 0.66 0.70 0.72 0.74 0.80 0.87 0.95 1.03 0.99 0.95 0.98 0.99 1.01 1.02 1.02 0.98 0.95 0.95 0.97 0.99
0.50 0.48 0.47 0.45 0.44 0.39 0.38 0.38 0.36 0.41 0.39 0.35 0.33 0.25 0.23 0.23 0.25 0.26 0.24 0.15 0.18 0.21 0.21 0.21 0.21 0.19 0.21 0.22 0.26 0.28 0.28 0.22 0.23 0.26 0.36 0.41 0.39 0.27 0.30 0.28 0.27 0.24 0.27 0.24 0.21 0.18 0.13 0.11 0.14 0.18 0.21 0.25 0.27 0.29 0.34 0.38 0.38 0.42 0.42 0.44 0.44 0.44 0.50 0.58 0.69 0.76 0.79 0.69 0.64 0.74 0.68 0.71 0.80 0.86 0.95 0.97 0.95 0.97 1.00 1.01 1.03 1.06 1.04 1.03 0.97 0.95 0.98 1.01
0.50 0.50 0.48 0.46 0.43 0.40 0.37 0.36 0.37 0.44 0.36 0.29 0.25 0.28 0.26 0.30 0.31 0.30 0.25 0.20 0.15 0.20 0.20 0.20 0.18 0.18 0.19 0.24 0.26 0.29 0.22 0.19 0.17 0.21 0.30 0.35 0.37 0.30 0.33 0.25 0.26 0.26 0.29 0.23 0.16 0.14 0.10 0.11 0.14 0.18 0.20 0.22 0.25 0.28 0.31 0.35 0.38 0.39 0.40 0.41 0.40 0.46 0.44 0.52 0.67 0.72 0.75 0.69 0.65 0.70 0.68 0.71 0.80 0.86 0.87 0.95 0.96 0.97 1.02 1.04 1.06 1.12 1.08 1.05 1.01 0.97 0.95 0.97
0.53 0.51 0.50 0.48 0.46 0.40 0.38 0.36 0.41 0.43 0.33 0.29 0.29 0.30 0.34 0.33 0.30 0.29 0.25 0.18 0.14 0.16 0.19 0.21 0.21 0.20 0.21 0.22 0.31 0.29 0.22 0.21 0.21 0.18 0.29 0.31 0.31 0.33 0.33 0.28 0.25 0.26 0.25 0.23 0.17 0.14 0.11 0.13 0.15 0.17 0.20 0.22 0.23 0.26 0.27 0.29 0.31 0.36 0.38 0.40 0.41 0.44 0.47 0.55 0.59 0.64 0.73 0.74 0.72 0.72 0.69 0.69 0.72 0.72 0.75 0.84 0.95 0.95 0.98 1.01 1.04 1.10 1.15 1.17 1.15 1.11 1.09 1.04
0.54 0.53 0.51 0.48 0.46 0.44 0.35 0.37 0.37 0.30 0.30 0.33 0.32 0.39 0.39 0.37 0.31 0.30 0.25 0.21 0.20 0.17 0.27 0.25 0.25 0.25 0.29 0.41 0.39 0.28 0.28 0.26 0.24 0.23 0.28 0.28 0.30 0.29 0.27 0.33 0.28 0.23 0.26 0.25 0.19 0.15 0.14 0.17 0.17 0.16 0.19 0.21 0.21 0.23 0.26 0.27 0.28 0.32 0.37 0.40 0.42 0.47 0.47 0.53 0.57 0.65 0.59 0.58 0.68 0.64 0.53 0.52 0.63 0.66 0.69 0.79 0.85 0.84 0.91 0.92 0.94 1.01 1.06 1.13 1.11 1.09 1.15 1.15
0.57 0.55 0.53 0.50 0.48 0.46 0.37 0.35 0.34 0.30 0.27 0.29 0.37 0.42 0.44 0.38 0.33 0.33 0.30 0.18 0.12 0.14 0.23 0.18 0.31 0.26 0.38 0.33 0.38 0.34 0.34 0.23 0.28 0.27 0.31 0.27 0.34 0.28 0.29 0.27 0.28 0.24 0.25 0.25 0.20 0.17 0.14 0.18 0.16 0.16 0.16 0.18 0.19 0.21 0.25 0.27 0.27 0.29 0.32 0.40 0.43 0.46 0.47 0.54 0.50 0.59 0.51 0.46 0.63 0.71 0.50 0.44 0.59 0.60 0.65 0.73 0.75 0.81 0.88 0.85 0.89 0.95 0.99 1.03 1.07 1.10 1.10 1.13
0.60 0.56 0.55 0.52 0.50 0.49 0.32 0.24 0.32 0.32 0.25 0.32 0.40 0.44 0.39 0.34 0.37 0.38 0.24 0.18 0.14 0.23 0.17 0.32 0.27 0.33 0.37 0.41 0.38 0.38 0.20 0.22 0.33 0.30 0.28 0.29 0.26 0.33 0.28 0.26 0.28 0.29 0.33 0.30 0.23 0.18 0.19 0.16 0.15 0.15 0.14 0.16 0.17 0.19 0.23 0.26 0.27 0.26 0.36 0.38 0.42 0.43 0.48 0.49 0.52 0.55 0.53 0.61 0.66 0.71 0.65 0.51 0.49 0.55 0.67 0.77 0.74 0.79 0.82 0.82 0.86 0.91 0.94 0.96 1.02 1.09 1.09 1.10
0.61 0.58 0.56 0.55 0.51 0.49 0.40 0.38 0.34 0.27 0.26 0.34 0.35 0.36 0.35 0.35 0.36 0.42 0.22 0.11 0.10 0.28 0.22 0.26 0.34 0.45 0.35 0.40 0.41 0.30 0.32 0.28 0.22 0.26 0.27 0.32 0.32 0.32 0.26 0.27 0.24 0.23 0.28 0.26 0.15 0.19 0.20 0.15 0.14 0.12 0.12 0.14 0.15 0.18 0.23 0.27 0.27 0.29 0.37 0.36 0.36 0.42 0.45 0.47 0.52 0.53 0.54 0.54 0.51 0.59 0.66 0.53 0.50 0.59 0.74 0.80 0.69 0.73 0.73 0.77 0.82 0.87 0.93 0.97 0.98 1.03 1.08 1.09
0.61 0.57 0.56 0.56 0.53 0.50 0.51 0.43 0.37 0.29 0.35 0.37 0.36 0.35 0.35 0.37 0.32 0.25 0.22 0.12 0.26 0.18 0.42 0.28 0.44 0.36 0.35 0.37 0.32 0.31 0.31 0.32 0.24 0.35 0.30 0.32 0.33 0.35 0.24 0.27 0.31 0.30 0.29 0.23 0.17 0.21 0.22 0.19 0.16 0.13 0.12 0.12 0.16 0.18 0.21 0.26 0.27 0.33 0.36 0.37 0.37 0.41 0.43 0.46 0.46 0.48 0.53 0.52 0.46 0.54 0.62 0.51 0.47 0.56 0.62 0.76 0.68 0.65 0.68 0.75 0.78 0.84 0.88 0.94 0.97 1.01 1.06 1.11
0.61 0.56 0.54 0.56 0.53 0.52 0.55 0.51 0.39 0.38 0.38 0.41 0.37 0.37 0.38 0.37 0.32 0.19 0.17 0.11 0.24 0.16 0.22 0.28 0.27 0.26 0.31 0.27 0.27 0.31 0.27 0.31 0.32 0.33 0.31 0.25 0.28 0.32 0.32 0.34 0.31 0.29 0.29 0.29 0.23 0.25 0.26 0.24 0.21 0.15 0.12 0.13 0.16 0.18 0.20 0.23 0.29 0.33 0.36 0.33 0.34 0.37 0.38 0.41 0.43 0.44 0.46 0.41 0.45 0.55 0.60 0.57 0.41 0.48 0.54 0.59 0.62 0.60 0.61 0.71 0.81 0.85 0.89 0.91 0.96 0.98 1.02 1.06
0.63 0.58 0.53 0.55 0.48 0.49 0.48 0.37 0.42 0.44 0.45 0.42 0.40 0.35 0.36 0.35 0.24 0.18 0.14 0.16 0.25 0.25 0.29 0.27 0.25 0.29 0.26 0.25 0.23 0.28 0.26 0.29 0.30 0.32 0.27 0.26 0.26 0.27 0.28 0.25 0.31 0.28 0.28 0.27 0.24 0.24 0.26 0.23 0.20 0.17 0.16 0.14 0.16 0.17 0.23 0.26 0.28 0.29 0.30 0.31 0.35 0.35 0.38 0.38 0.38 0.44 0.39 0.36 0.47 0.52 0.49 0.61 0.41 0.41 0.52 0.63 0.71 0.68 0.64 0.62 0.67 0.80 0.80 0.83 0.89 0.96 1.01 1.03
0.64 0.58 0.53 0.51 0.50 0.57 0.41 0.34 0.46 0.46 0.43 0.43 0.36 0.29 0.28 0.21 0.23 0.16 0.17 0.32 0.16 0.22 0.20 0.24 0.27 0.26 0.24 0.25 0.21 0.22 0.23 0.25 0.29 0.29 0.27 0.22 0.22 0.20 0.22 0.20 0.22 0.19 0.20 0.22 0.20 0.25 0.22 0.22 0.21 0.19 0.18 0.14 0.13 0.15 0.19 0.21 0.24 0.25 0.27 0.31 0.30 0.32 0.33 0.29 0.33 0.32 0.34 0.37 0.45 0.48 0.48 0.48 0.48 0.47 0.52 0.58 0.62 0.67 0.68 0.63 0.60 0.63 0.79 0.80 0.80 0.83 0.93 1.02
0.64 0.58 0.53 0.50 0.53 0.52 0.50 0.47 0.51 0.49 0.47 0.41 0.33 0.27 0.22 0.20 0.15 0.19 0.20 0.23 0.18 0.26 0.23 0.28 0.25 0.24 0.24 0.22 0.21 0.22 0.22 0.18 0.28 0.27 0.29 0.26 0.22 0.22 0.23 0.22 0.26 0.20 0.17 0.23 0.23 0.22 0.20 0.26 0.24 0.20 0.20 0.16 0.14 0.12 0.13 0.16 0.19 0.22 0.23 0.27 0.28 0.28 0.27 0.23 0.27 0.32 0.34 0.39 0.45 0.47 0.50 0.41 0.49 0.52 0.56 0.54 0.60 0.65 0.65 0.63 0.63 0.63 0.64 0.81 0.85 0.84 0.88 0.96
0.64 0.58 0.52 0.50 0.52 0.56 0.58 0.62 0.59 0.57 0.47 0.41 0.28 0.24 0.22 0.18 0.16 0.25 0.21 0.22 0.22 0.27 0.29 0.27 0.27 0.26 0.25 0.22 0.23 0.23 0.19 0.22 0.25 0.26 0.27 0.27 0.23 0.22 0.22 0.24 0.28 0.25 0.24 0.29 0.20 0.21 0.17 0.17 0.19 0.19 0.16 0.19 0.14 0.12 0.12 0.16 0.18 0.21 0.23 0.26 0.28 0.29 0.28 0.23 0.25 0.25 0.26 0.31 0.38 0.46 0.43 0.37 0.35 0.38 0.52 0.57 0.60 0.59 0.56 0.54 0.53 0.59 0.65 0.67 0.82 0.87 0.85 0.88
0.63 0.57 0.56 0.54 0.55 0.58 0.63 0.68 0.68 0.64 0.52 0.38 0.26 0.23 0.19 0.18 0.22 0.22 0.22 0.23 0.23 0.25 0.25 0.30 0.26 0.25 0.24 0.25 0.26 0.25 0.23 0.23 0.26 0.27 0.25 0.25 0.23 0.22 0.22 0.21 0.26 0.29 0.26 0.21 0.26 0.24 0.19 0.17 0.21 0.21 0.19 0.21 0.15 0.14 0.13 0.16 0.19 0.20 0.21 0.25 0.28 0.29 0.37 0.28 0.29 0.29 0.30 0.33 0.35 0.40 0.39 0.42 0.40 0.52 0.66 0.62 0.57 0.54 0.53 0.50 0.52 0.56 0.63 0.68 0.71 0.76 0.79 0.82
0.62 0.55 0.55 0.52 0.52 0.62 0.66 0.68 0.68 0.64 0.52 0.34 0.24 0.20 0.19 0.21 0.22 0.25 0.25 0.27 0.25 0.22 0.22 0.23 0.23 0.21 0.22 0.24 0.26 0.25 0.29 0.22 0.27 0.25 0.26 0.24 0.27 0.24 0.27 0.26 0.25 0.28 0.27 0.20 0.27 0.20 0.21 0.17 0.22 0.24 0.21 0.17 0.18 0.16 0.13 0.16 0.14 0.19 0.21 0.20 0.24 0.34 0.37 0.32 0.33 0.33 0.34 0.33 0.26 0.37 0.41 0.41 0.44 0.51 0.57 0.54 0.53 0.49 0.49 0.49 0.50 0.50 0.58 0.63 0.61 0.66 0.72 0.77
0.56 0.57 0.49 0.48 0.54 0.70 0.70 0.69 0.67 0.60 0.50 0.35 0.24 0.20 0.22 0.23 0.26 0.27 0.33 0.31 0.26 0.26 0.22 0.17 0.18 0.17 0.17 0.18 0.21 0.23 0.25 0.24 0.23 0.23 0.22 0.26 0.24 0.26 0.28 0.29 0.31 0.28 0.28 0.29 0.26 0.27 0.19 0.18 0.23 0.21 0.17 0.19 0.21 0.18 0.15 0.15 0.18 0.24 0.19 0.21 0.28 0.35 0.38 0.34 0.27 0.33 0.32 0.27 0.25 0.33 0.35 0.36 0.34 0.30 0.44 0.45 0.42 0.42 0.45 0.47 0.47 0.50 0.57 0.55 0.56 0.59 0.65 0.71
0.56 0.55 0.54 0.56 0.66 0.72 0.74 0.72 0.67 0.58 0.47 0.34 0.26 0.24 0.25 0.22 0.25 0.26 0.34 0.41 0.32 0.27 0.23 0.21 0.20 0.21 0.18 0.17 0.18 0.21 0.25 0.21 0.21 0.22 0.22 0.28 0.23 0.30 0.28 0.30 0.34 0.30 0.31 0.33 0.27 0.30 0.25 0.17 0.20 0.21 0.19 0.19 0.19 0.17 0.16 0.17 0.18 0.19 0.21 0.26 0.25 0.26 0.27 0.34 0.33 0.28 0.26 0.22 0.22 0.26 0.29 0.35 0.36 0.31 0.37 0.39 0.40 0.41 0.43 0.45 0.45 0.46 0.51 0.50 0.53 0.58 0.62 0.68
0.59 0.54 0.46 0.64 0.70 0.71 0.69 0.70 0.63 0.54 0.42 0.32 0.28 0.26 0.27 0.25 0.26 0.26 0.28 0.29 0.31 0.31 0.25 0.23 0.22 0.26 0.22 0.20 0.20 0.24 0.26 0.19 0.21 0.22 0.20 0.25 0.21 0.29 0.28 0.31 0.33 0.34 0.34 0.35 0.28 0.32 0.29 0.18 0.20 0.25 0.20 0.19 0.17 0.15 0.12 0.13 0.17 0.17 0.23 0.27 0.30 0.27 0.28 0.30 0.32 0.30 0.31 0.25 0.24 0.21 0.26 0.29 0.36 0.33 0.39 0.41 0.42 0.42 0.42 0.43 0.42 0.42 0.50 0.52 0.50 0.54 0.59 0.63
0.48 0.44 0.38 0.70 0.70 0.71 0.69 0.64 0.55 0.50 0.42 0.31 0.30 0.29 0.30 0.27 0.27 0.27 0.26 0.26 0.25 0.26 0.25 0.24 0.25 0.24 0.26 0.23 0.25 0.25 0.26 0.22 0.23 0.24 0.21 0.26 0.23 0.33 0.30 0.32 0.31 0.34 0.35 0.36 0.33 0.35 0.30 0.28 0.20 0.26 0.25 0.21 0.16 0.14 0.11 0.13 0.14 0.14 0.16 0.21 0.26 0.26 0.31 0.31 0.33 0.33 0.28 0.24 0.25 0.25 0.21 0.24 0.33 0.36 0.35 0.41 0.42 0.44 0.43 0.43 0.43 0.44 0.47 0.51 0.55 0.52 0.57 0.61
0.51 0.47 0.45 0.69 0.70 0.70 0.61 0.55 0.43 0.40 0.37 0.38 0.36 0.32 0.30 0.27 0.29 0.29 0.27 0.26 0.24 0.25 0.24 0.24 0.24 0.24 0.25 0.25 0.23 0.27 0.26 0.24 0.24 0.22 0.22 0.23 0.24 0.23 0.30 0.32 0.32 0.32 0.35 0.36 0.33 0.36 0.32 0.30 0.20 0.27 0.24 0.20 0.18 0.21 0.15 0.12 0.14 0.16 0.16 0.15 0.21 0.25 0.25 0.23 0.25 0.35 0.34 0.28 0.25 0.25 0.22 0.27 0.37 0.44 0.37 0.38 0.41 0.42 0.42 0.42 0.42 0.42 0.43 0.46 0.59 0.60 0.59 0.61
0.45 0.36 0.48 0.62 0.67 0.59 0.54 0.43 0.42 0.41 0.38 0.36 0.34 0.34 0.32 0.34 0.30 0.29 0.29 0.28 0.25 0.24 0.26 0.25 0.26 0.25 0.25 0.24 0.26 0.25 0.23 0.23 0.24 0.23 0.24 0.21 0.24 0.25 0.33 0.34 0.34 0.35 0.33 0.31 0.31 0.38 0.37 0.37 0.29 0.26 0.25 0.23 0.22 0.24 0.24 0.18 0.15 0.16 0.18 0.15 0.18 0.20 0.25 0.25 0.22 0.28 0.31 0.29 0.30 0.27 0.27 0.27 0.36 0.43 0.44 0.42 0.40 0.39 0.41 0.41 0.39 0.40 0.43 0.47 0.62 0.58 0.63 0.65
0.39 0.36 0.42 0.44 0.58 0.62 0.53 0.43 0.43 0.43 0.38 0.36 0.40 0.40 0.40 0.37 0.35 0.34 0.29 0.27 0.26 0.26 0.24 0.24 0.23 0.23 0.24 0.24 0.24 0.23 0.23 0.22 0.23 0.22 0.23 0.23 0.23 0.26 0.31 0.33 0.35 0.34 0.33 0.34 0.35 0.39 0.40 0.33 0.30 0.27 0.31 0.33 0.32 0.30 0.29 0.26 0.20 0.16 0.16 0.18 0.17 0.17 0.20 0.22 0.25 0.29 0.30 0.30 0.29 0.28 0.26 0.27 0.37 0.44 0.44 0.42 0.39 0.38 0.41 0.42 0.43 0.42 0.42 0.48 0.56 0.54 0.60 0.66
0.40 0.35 0.37 0.60 0.64 0.66 0.50 0.39 0.39 0.40 0.41 0.42 0.38 0.35 0.39 0.38 0.36 0.33 0.31 0.32 0.27 0.26 0.24 0.23 0.25 0.25 0.23 0.25 0.24 0.23 0.23 0.19 0.22 0.22 0.22 0.23 0.21 0.25 0.28 0.29 0.34 0.33 0.33 0.35 0.31 0.39 0.29 0.34 0.31 0.27 0.26 0.30 0.32 0.33 0.30 0.30 0.25 0.19 0.15 0.15 0.16 0.18 0.19 0.21 0.25 0.29 0.28 0.30 0.31 0.27 0.22 0.27 0.38 0.46 0.47 0.44 0.36 0.34 0.34 0.39 0.43 0.43 0.44 0.49 0.56 0.54 0.57 0.64
0.39 0.43 0.43 0.47 0.61 0.60 0.43 0.47 0.45 0.46 0.48 0.48 0.48 0.46 0.43 0.41 0.41 0.40 0.39 0.35 0.33 0.30 0.27 0.26 0.25 0.26 0.25 0.25 0.24 0.24 0.23 0.21 0.20 0.22 0.22 0.22 0.22 0.25 0.26 0.30 0.33 0.33 0.37 0.50 0.50 0.43 0.32 0.34 0.31 0.24 0.21 0.19 0.19 0.20 0.21 0.21 0.21 0.22 0.20 0.17 0.16 0.15 0.17 0.19 0.19 0.22 0.21 0.28 0.32 0.29 0.28 0.32 0.35 0.44 0.38 0.36 0.40 0.39 0.38 0.39 0.40 0.41 0.42 0.46 0.55 0.56 0.56 0.60
0.35 0.29 0.36 0.35 0.59 0.57 0.51 0.49 0.49 0.48 0.45 0.46 0.46 0.45 0.43 0.39 0.42 0.41 0.38 0.35 0.38 0.37 0.34 0.32 0.30 0.27 0.26 0.25 0.23 0.23 0.23 0.23 0.21 0.21 0.23 0.22 0.23 0.25 0.26 0.30 0.33 0.34 0.40 0.50 0.52 0.49 0.38 0.37 0.35 0.29 0.25 0.23 0.24 0.28 0.31 0.30 0.28 0.21 0.21 0.19 0.18 0.18 0.16 0.17 0.19 0.21 0.22 0.28 0.28 0.31 0.32 0.33 0.35 0.38 0.40 0.36 0.36 0.33 0.33 0.34 0.35 0.39 0.45 0.46 0.50 0.53 0.55 0.57
0.41 0.32 0.33 0.34 0.46 0.43 0.41 0.46 0.44 0.48 0.43 0.47 0.41 0.44 0.41 0.43 0.44 0.44 0.47 0.36 0.37 0.34 0.35 0.35 0.34 0.31 0.29 0.28 0.26 0.24 0.25 0.23 0.24 0.23 0.22 0.25 0.26 0.26 0.33 0.34 0.37 0.41 0.46 0.48 0.55 0.52 0.44 0.37 0.37 0.34 0.31 0.30 0.31 0.32 0.34 0.33 0.29 0.28 0.24 0.21 0.19 0.19 0.18 0.15 0.14 0.16 0.22 0.23 0.23 0.29 0.31 0.30 0.34 0.35 0.38 0.40 0.37 0.35 0.33 0.33 0.35 0.42 0.47 0.43 0.49 0.52 0.52 0.56
0.34 0.37 0.46 0.54 0.39 0.32 0.39 0.41 0.50 0.48 0.47 0.44 0.42 0.47 0.41 0.40 0.41 0.39 0.46 0.45 0.42 0.40 0.32 0.32 0.32 0.33 0.33 0.32 0.30 0.27 0.27 0.25 0.24 0.22 0.23 0.23 0.25 0.31 0.31 0.33 0.33 0.38 0.41 0.45 0.57 0.57 0.50 0.39 0.42 0.38 0.34 0.32 0.32 0.32 0.33 0.34 0.32 0.30 0.29 0.26 0.24 0.22 0.20 0.18 0.16 0.17 0.18 0.19 0.20 0.26 0.31 0.31 0.32 0.33 0.37 0.37 0.39 0.37 0.35 0.33 0.32 0.35 0.39 0.57 0.54 0.50 0.49 0.52
0.40 0.41 0.39 0.45 0.34 0.36 0.36 0.39 0.40 0.37 0.36 0.38 0.38 0.41 0.40 0.39 0.38 0.42 0.46 0.50 0.48 0.44 0.43 0.33 0.31 0.31 0.32 0.35 0.37 0.33 0.32 0.28 0.26 0.27 0.25 0.24 0.23 0.25 0.25 0.28 0.32 0.36 0.37 0.41 0.49 0.59 0.56 0.46 0.46 0.44 0.39 0.38 0.37 0.35 0.34 0.32 0.32 0.32 0.30 0.30 0.29 0.26 0.23 0.21 0.19 0.18 0.17 0.18 0.21 0.25 0.30 0.32 0.33 0.32 0.32 0.34 0.37 0.38 0.36 0.37 0.35 0.40 0.44 0.47 0.50 0.49 0.48 0.52
0.36 0.36 0.35 0.44 0.41 0.35 0.32 0.30 0.28 0.29 0.30 0.34 0.32 0.36 0.39 0.42 0.41 0.47 0.53 0.51 0.47 0.46 0.48 0.39 0.41 0.43 0.37 0.32 0.35 0.37 0.43 0.42 0.39 0.35 0.33 0.29 0.29 0.27 0.24 0.26 0.29 0.34 0.37 0.38 0.49 0.62 0.51 0.45 0.48 0.45 0.40 0.37 0.38 0.38 0.37 0.35 0.33 0.31 0.31 0.30 0.30 0.29 0.27 0.25 0.22 0.20 0.19 0.18 0.18 0.20 0.23 0.27 0.36 0.33 0.31 0.32 0.33 0.34 0.32 0.32 0.37 0.38 0.40 0.44 0.47 0.46 0.47 0.48
0.48 0.47 0.43 0.35 0.29 0.31 0.33 0.34 0.35 0.35 0.31 0.30 0.28 0.30 0.33 0.37 0.42 0.49 0.48 0.52 0.48 0.48 0.51 0.47 0.51 0.54 0.55 0.51 0.51 0.50 0.52 0.53 0.52 0.50 0.56 0.47 0.32 0.32 0.28 0.28 0.33 0.37 0.36 0.43 0.52 0.57 0.53 0.47 0.54 0.47 0.37 0.35 0.36 0.35 0.36 0.36 0.35 0.32 0.31 0.31 0.29 0.28 0.26 0.26 0.23 0.23 0.20 0.18 0.19 0.19 0.19 0.21 0.25 0.29 0.32 0.30 0.29 0.34 0.35 0.37 0.37 0.39 0.34 0.37 0.47 0.45 0.47 0.50
0.55 0.55 0.52 0.43 0.32 0.37 0.34 0.34 0.33 0.30 0.26 0.31 0.33 0.37 0.40 0.40 0.43 0.43 0.37 0.45 0.52 0.58 0.60 0.58 0.57 0.53 0.54 0.50 0.47 0.52 0.58 0.56 0.53 0.50 0.51 0.51 0.45 0.47 0.48 0.50 0.48 0.39 0.45 0.46 0.55 0.53 0.54 0.50 0.47 0.46 0.37 0.34 0.39 0.38 0.35 0.35 0.34 0.30 0.29 0.29 0.30 0.29 0.28 0.29 0.29 0.27 0.24 0.22 0.20 0.19 0.19 0.23 0.25 0.22 0.27 0.29 0.25 0.28 0.35 0.35 0.34 0.34 0.33 0.37 0.45 0.46 0.49 0.56
Wind_Speed
14 14 14 14 14 14 14 14 14 15 15 15 16 16 16 16 16 16 16 16 15 15 15 14 14 13 13 13 12 12 11 11 10 11 11 10 9 10 11 13 16 16 16 15 15 15 14 13 12 11 9 8 6 6 6 7 5 4 3 2 2 1 2 2 3 2 2 5 6 6 6 5 6 6 6 6 7 8 8 8 8 8 8 10 11 14 15 15
15 15 15 15 15 15 15 15 15 15 15 15 15 16 16 16 17 17 16 16 16 16 15 14 14 14 13 13 13 12 12 11 11 12 11 9 8 9 10 12 17 18 18 17 17 16 15 14 13 12 10 8 7 7 7 7 7 6 4 3 2 1 2 2 2 2 2 5 6 6 6 5 6 6 6 7 7 8 8 9 9 9 10 11 13 15 15 16
15 15 15 15 15 15 15 15 15 15 15 16 16 16 16 16 16 17 17 17 17 17 16 15 15 14 14 13 13 12 12 12 12 11 8 7 8 9 9 11 16 19 19 18 18 17 16 15 15 14 12 9 8 8 8 7 7 7 5 4 3 2 2 2 1 2 3 5 7 6 6 6 6 7 7 7 8 8 8 9 10 10 11 13 14 15 16 16
16 16 16 16 16 16 16 16 16 16 16 16 16 16 16 16 16 17 17 17 17 17 17 16 15 14 14 13 13 12 12 12 10 8 8 7 7 8 9 11 14 18 19 18 18 17 16 16 16 15 13 11 10 9 9 8 7 6 6 5 3 2 2 2 2 2 3 5 7 7 7 7 7 7 7 8 8 7 8 9 10 10 12 14 15 15 16 16
16 16 16 17 16 16 16 16 16 16 16 16 16 17 17 17 17 17 17 17 17 17 17 17 16 15 14 14 13 12 11 10 7 7 8 8 8 8 9 11 13 16 18 18 17 18 17 16 16 15 14 12 11 10 10 10 9 7 7 7 4 3 2 2 2 3 4 6 7 7 7 7 7 7 7 8 7 6 7 9 9 11 13 14 15 16 15 15
16 16 17 17 17 17 17 17 17 17 17 17 17 17 17 17 17 17 17 17 17 17 17 17 17 16 15 14 13 12 12 10 8 8 9 9 9 9 9 12 14 15 17 18 18 18 18 17 17 16 15 13 12 11 10 11 11 8 8 8 7 5 4 2 3 4 5 6 7 7 7 7 8 7 7 8 6 4 7 9 10 11 14 15 16 16 15 15
17 17 17 17 17 17 17 17 17 17 17 17 17 17 17 17 17 17 17 17 17 16 16 17 17 16 15 14 13 13 14 15 13 12 11 11 10 10 9 12 15 16 17 18 19 19 19 19 19 17 15 14 13 13 11 10 11 10 9 9 8 7 5 3 3 4 5 7 7 8 8 8 8 7 7 8 6 4 6 9 10 12 14 16 16 16 16 16
17 17 17 17 17 18 18 18 18 18 18 18 18 18 18 18 18 18 17 17 17 17 16 16 16 16 15 14 13 14 15 16 15 13 12 11 11 10 10 11 15 16 17 19 20 19 20 20 20 18 16 15 14 13 12 11 12 12 11 9 8 7 6 5 4 5 6 7 7 8 8 9 9 7 7 8 7 5 7 9 11 12 14 15 16 16 16 16
17 17 18 18 18 18 18 18 18 18 18 18 18 18 18 18 18 18 18 18 17 17 16 15 15 14 15 14 15 15 15 15 14 13 12 12 11 11 10 12 15 16 18 19 20 20 20 20 21 19 16 15 14 13 13 12 11 12 13 11 9 9 7 6 6 6 8 7 8 9 9 9 9 6 6 8 7 6 8 9 10 12 13 14 15 16 16 16
18 18 18 18 18 18 19 19 19 19 19 19 19 19 19 19 19 19 18 18 17 16 15 14 13 13 14 15 16 15 14 14 14 14 14 14 13 12 12 12 15 16 18 19 20 21 21 20 21 19 16 15 15 14 14 13 10 9 12 12 10 9 7 7 7 8 9 8 9 9 9 9 9 6 6 8 8 7 9 10 10 11 13 14 15 15 16 16
18 18 18 19 19 19 19 19 19 19 19 19 19 20 19 20 19 19 19 18 17 16 15 14 12 12 13 14 16 17 14 15 16 16 16 16 15 15 14 14 15 17 18 19 20 21 22 21 20 19 16 15 15 15 15 14 11 10 10 11 11 10 8 8 8 9 10 9 10 9 8 8 8 7 6 8 9 8 10 11 11 11 12 13 15 15 15 15
19 19 19 19 19 19 19 20 20 20 20 20 20 20 20 20 20 19 19 18 17 15 14 13 12 12 12 14 17 18 17 16 17 17 18 17 17 17 15 15 16 17 18 19 20 21 22 21 21 20 17 15 15 15 14 14 12 11 12 10 10 9 9 9 9 11 10 9 11 9 8 8 9 9 8 9 10 9 10 11 11 11 12 13 14 15 15 15
19 20 20 20 20 20 20 20 20 21 21 21 21 21 21 20 20 20 19 18 16 15 14 13 12 12 13 14 15 18 18 18 18 19 19 19 18 18 17 16 16 17 18 19 20 21 22 20 21 22 18 16 15 13 12 14 13 12 13 11 9 9 9 10 11 12 11 10 12 10 7 7 9 11 9 9 11 10 11 11 11 11 11 12 13 14 14 15
20 20 20 21 21 21 21 21 21 22 22 21 21 21 21 20 20 19 18 17 16 15 14 13 12 13 14 14 15 16 17 19 19 20 19 19 19 18 18 17 17 17 18 19 19 20 21 20 21 21 20 17 15 14 13 14 14 13 13 12 10 9 9 11 12 13 12 10 13 12 8 6 7 11 11 10 12 12 11 11 11 11 12 12 13 13 14 15
20 21 21 21 21 21 22 22 22 23 23 22 22 22 21 21 20 18 17 16 15 14 13 13 13 13 15 16 15 14 15 17 19 19 18 18 18 19 19 18 17 17 18 19 19 20 20 20 21 20 20 19 16 16 15 13 14 14 13 12 12 10 9 11 13 14 12 11 13 13 9 6 6 10 12 11 12 12 12 12 12 12 12 13 13 13 13 14
21 21 21 22 22 22 22 23 23 23 23 23 23 22 22 21 19 18 17 15 14 13 13 14 14 14 15 14 12 12 13 14 17 18 17 17 19 19 19 19 18 18 18 19 18 20 21 20 21 20 19 20 18 17 16 14 14 15 15 13 13 12 10 11 13 15 13 11 14 13 10 7 7 11 12 12 12 12 12 12 12 12 12 13 13 13 13 13
21 22 22 22 22 23 23 23 23 24 24 24 23 22 21 20 18 17 16 15 15 14 14 15 14 15 16 14 13 13 13 13 15 17 17 18 19 20 20 20 19 19 19 19 19 20 22 21 21 20 19 19 19 19 17 17 16 16 17 15 13 14 12 11 13 15 15 13 14 14 12 8 7 10 12 12 12 12 12 12 13 13 12 13 13 13 14 14
22 22 22 23 23 23 23 24 24 24 24 24 23 22 21 19 18 17 16 16 15 15 15 15 14 14 14 14 13 12 12 12 14 16 17 18 20 21 22 20 20 20 20 20 20 21 22 22 21 21 20 20 21 21 20 18 17 16 17 16 14 14 13 12 12 15 17 15 14 15 14 12 9 10 11 12 12 12 12 11 12 12 13 13 13 13 14 14
23 23 23 24 24 24 24 24 24 24 24 23 22 21 19 18 17 17 16 16 16 16 15 14 14 14 13 13 14 13 13 14 16 17 18 18 20 22 22 22 21 22 21 20 21 23 23 22 22 22 22 22 23 23 22 20 18 17 17 16 15 14 14 14 13 15 18 16 15 15 15 15 13 11 11 12 12 12 12 11 11 11 12 13 13 14 14 15
24 24 24 25 25 25 25 25 25 25 23 22 21 19 17 17 17 16 16 17 19 19 19 17 17 18 18 17 17 16 16 17 18 18 18 18 20 22 23 23 23 23 22 21 21 23 24 23 23 23 23 24 25 25 24 21 18 17 17 17 17 15 14 16 15 15 17 16 15 16 15 15 14 13 12 13 13 12 12 12 11 11 12 13 14 14 14 15
25 25 25 26 26 26 26 25 25 24 22 20 20 18 16 16 17 16 17 19 21 21 22 22 20 21 21 20 18 16 16 17 18 19 19 19 21 23 24 24 24 24 24 23 22 22 24 25 24 25 24 24 25 26 25 23 19 17 18 17 17 16 15 15 15 16 18 16 15 16 16 16 15 14 13 14 14 13 13 12 12 12 12 12 13 14 15 15
26 26 26 26 27 27 26 26 26 23 21 20 19 17 15 15 16 17 18 19 20 21 22 22 21 22 21 21 20 18 17 17 19 20 20 20 22 22 23 26 25 24 25 25 23 23 25 26 25 25 25 25 25 26 26 25 21 19 18 17 17 17 14 13 14 16 17 16 15 16 17 16 16 15 14 15 15 14 14 14 13 13 12 12 13 14 14 15
27 27 27 27 27 28 27 27 25 22 20 20 19 17 16 16 17 18 19 19 20 20 20 21 21 21 20 20 19 18 19 19 19 21 21 21 23 23 23 26 27 26 26 27 26 25 25 26 26 26 26 26 26 26 27 25 23 21 19 18 17 18 16 14 15 17 18 17 15 15 16 16 16 16 17 17 17 16 16 16 15 14 14 13 13 13 14 15
27 27 27 27 28 28 28 27 23 21 21 21 20 18 16 17 18 19 19 19 19 18 18 19 19 19 19 17 16 17 19 18 18 20 21 23 23 23 23 25 27 27 27 29 29 28 26 24 25 27 26 27 27 26 27 25 23 23 22 21 19 18 19 17 16 17 18 18 16 15 15 16 17 18 18 17 17 17 17 17 16 16 15 14 14 14 15 15
28 28 28 28 28 28 28 25 21 21 22 21 19 18 17 18 19 19 19 18 18 16 16 17 17 17 17 15 15 16 16 17 19 19 20 23 23 22 23 24 26 28 28 29 30 30 28 24 24 27 27 28 28 27 28 26 23 23 24 24 21 19 20 19 18 17 18 18 18 17 16 15 17 19 19 17 17 18 17 17 17 17 17 16 16 15 15 15
29 29 28 28 28 28 27 22 20 23 22 19 18 18 19 20 19 19 18 17 17 15 14 16 15 15 15 15 15 14 15 16 18 19 20 22 24 22 22 23 24 27 28 29 28 28 29 27 25 27 28 29 29 27 28 28 24 22 23 25 24 21 20 20 20 19 18 17 17 19 17 15 16 18 19 18 18 18 17 17 17 17 17 17 17 16 16 16
31 30 29 28 28 27 24 22 23 23 21 19 19 20 20 20 19 18 17 17 17 14 14 15 14 13 14 14 14 13 13 13 15 19 20 21 23 23 23 23 23 25 26 26 27 28 30 29 27 28 28 29 30 28 28 29 26 23 21 24 26 24 21 21 21 21 19 17 17 19 19 17 17 17 16 18 19 19 18 17 17 17 18 18 18 18 17 17
31 31 30 29 29 27 25 24 25 23 21 20 20 21 21 20 20 18 17 17 15 12 12 13 13 13 13 13 15 14 12 12 13 17 20 21 22 22 23 24 24 25 26 26 27 27 29 31 29 29 30 29 30 29 28 28 28 24 20 22 25 25 23 22 21 21 20 19 19 20 20 18 18 18 16 17 19 19 19 18 17 18 18 18 19 19 19 18
32 32 31 30 30 28 25 25 25 24 23 22 21 21 21 21 19 18 18 17 15 13 13 13 13 15 14 14 16 17 15 14 14 14 18 21 22 21 22 24 24 25 27 28 28 25 27 31 31 31 31 30 29 29 29 29 29 24 19 20 23 24 23 22 22 21 21 23 21 21 22 19 18 18 18 18 19 19 18 18 17 18 18 18 18 19 19 19
33 33 32 31 30 27 26 26 27 26 24 23 22 21 21 20 19 19 20 18 15 14 14 14 15 15 16 15 16 17 17 16 14 14 17 20 23 22 20 21 23 25 26 28 30 28 25 28 31 31 32 31 30 30 29 29 29 25 21 21 22 22 22 21 21 21 22 23 23 23 22 20 18 18 18 18 19 18 17 16 16 17 18 18 18 18 19 19
35 34 34 32 30 27 27 27 26 25 25 24 22 22 21 20 20 21 21 17 16 16 16 17 17 16 17 17 16 17 17 17 16 16 16 18 21 22 20 20 22 23 25 27 29 30 28 27 29 31 32 32 31 31 30 29 30 27 24 24 23 21 21 21 21 22 22 22 22 24 23 22 20 19 17 17 19 19 16 16 16 16 18 19 19 19 19 19
36 36 35 34 31 29 28 28 26 25 25 24 23 23 22 21 23 25 21 16 16 17 17 17 18 18 18 18 17 17 16 17 18 18 17 18 20 22 22 21 21 22 24 25 26 29 30 29 29 30 32 34 33 31 30 30 32 30 27 27 26 23 22 22 22 22 23 23 23 24 24 23 21 20 19 18 18 18 16 16 16 16 17 18 19 19 18 19
37 37 36 34 32 30 30 30 28 27 26 25 24 24 23 24 25 25 22 19 16 15 16 17 19 20 20 19 19 18 17 17 18 19 19 19 19 21 24 24 23 23 23 23 25 26 28 29 31 31 31 34 35 33 31 31 32 32 30 29 28 25 23 23 23 22 23 24 24 23 22 23 21 20 22 21 20 19 18 17 17 16 17 18 19 19 18 19
39 38 35 34 33 31 30 30 29 28 26 25 25 25 27 29 26 23 24 24 19 16 17 17 18 20 21 21 19 18 18 17 18 20 20 21 20 20 23 25 26 24 21 22 24 25 26 27 32 34 31 32 36 35 33 31 31 33 32 30 30 28 25 23 22 22 22 22 24 24 23 22 20 18 19 21 21 20 18 17 17 16 16 17 17 18 18 18
40 37 35 34 33 31 30 29 28 27 26 26 26 27 30 30 26 23 24 25 23 21 20 20 20 21 22 22 21 19 19 17 18 20 21 22 22 21 21 23 26 25 23 22 22 24 27 26 28 33 33 32 35 36 34 31 30 32 33 32 32 31 28 24 24 25 23 22 23 24 23 23 21 18 18 19 18 18 18 17 16 16 16 16 17 18 18 18
39 36 35 34 32 31 30 29 28 28 28 28 29 31 33 30 26 24 23 23 24 24 23 24 24 24 23 23 22 22 20 19 18 20 21 23 23 23 22 22 24 26 25 23 20 21 24 24 24 29 33 34 34 35 36 34 29 29 34 35 32 31 30 27 26 25 24 24 23 23 23 23 22 22 22 23 21 20 19 18 17 16 16 17 18 18 19 18
37 35 35 34 32 31 30 29 28 29 29 30 32 34 32 30 29 27 24 22 23 24 24 25 25 26 26 24 24 24 23 21 21 20 20 22 23 24 23 22 23 26 26 24 21 20 21 22 23 27 31 33 33 33 36 37 33 29 32 35 31 29 30 29 26 24 25 25 24 24 24 23 23 23 23 24 24 23 21 19 18 17 17 18 19 19 19 19
37 37 36 34 32 31 30 30 29 30 30 31 35 36 32 31 31 30 27 25 24 25 26 26 25 25 26 25 24 24 24 22 22 21 21 20 20 22 24 23 22 24 27 26 22 20 20 21 23 27 29 30 32 33 34 37 39 34 30 31 32 30 30 30 27 25 25 25 24 26 26 24 24 23 21 21 22 21 21 20 18 16 16 18 19 19 20 20
37 36 34 31 31 31 31 30 30 30 32 33 35 35 33 33 33 32 31 29 28 27 28 28 26 25 26 26 24 23 24 24 23 22 21 20 19 20 22 22 22 23 26 27 24 20 20 20 21 24 27 28 30 33 34 35 38 38 33 31 33 33 32 32 30 28 26 25 24 26 27 24 24 24 23 21 19 18 17 17 17 15 15 17 18 18 19 19
36 34 33 31 31 32 31 31 32 32 34 35 35 33 32 33 33 34 34 33 31 30 30 30 29 28 27 27 26 23 24 25 23 22 21 21 19 19 21 22 22 22 24 26 25 22 21 21 21 21 24 28 29 32 35 34 35 37 36 34 33 33 32 32 32 32 31 28 25 24 26 25 22 23 25 25 21 19 18 17 17 17 16 17 17 17 18 19
35 34 32 31 32 33 33 33 33 33 34 36 36 35 34 32 32 33 34 35 34 33 32 32 31 30 29 28 28 26 24 25 25 24 22 22 21 19 19 21 22 22 23 25 25 24 22 21 22 21 22 27 29 30 34 36 35 35 36 37 35 33 32 32 32 32 33 32 29 26 25 24 21 20 24 26 25 24 22 20 19 19 19 18 16 16 17 18
36 34 33 33 34 34 34 34 34 34 35 35 35 35 34 33 33 33 33 34 35 34 34 34 33 32 31 30 29 28 27 26 26 26 24 23 23 20 17 18 21 21 22 24 24 24 22 21 22 23 23 25 27 29 31 34 36 35 35 37 37 36 35 34 32 31 32 33 33 30 28 26 23 21 22 24 25 26 24 22 20 20 20 18 16 16 16 17
36 37 36 35 35 34 34 35 35 34 35 36 36 36 35 34 34 34 34 34 34 34 34 35 35 34 33 32 30 30 29 28 28 28 26 24 25 23 19 18 19 20 21 22 23 24 23 22 22 23 23 23 26 27 29 31 34 35 35 36 38 38 38 37 34 32 32 34 33 32 30 27 24 22 21 20 22 25 25 23 21 19 18 17 16 16 16 16
37 38 37 35 33 33 34 34 33 34 34 35 36 37 36 35 35 34 34 34 34 34 34 34 34 35 34 33 32 31 30 29 28 28 28 26 25 26 25 23 21 21 20 19 20 22 24 24 23 23 22 22 25 26 28 30 32 33 35 36 38 40 40 39 36 35 35 36 35 34 32 30 26 24 23 22 22 24 25 24 23 21 20 18 16 15 16 16
38 37 36 34 33 34 34 33 33 33 33 33 35 35 35 35 35 36 35 35 35 34 34 34 34 34 34 33 33 33 32 30 29 28 28 28 26 26 27 26 24 24 22 19 18 20 23 24 25 25 23 23 25 26 27 29 31 32 34 37 38 40 41 39 36 37 37 36 37 36 33 31 29 28 27 26 24 23 22 23 22 21 20 19 16 16 16 17
37 35 35 34 33 34 34 34 34 33 32 32 33 33 33 33 34 35 36 36 36 36 35 34 34 34 34 34 34 33 33 33 31 28 27 27 26 26 27 27 26 25 23 20 20 21 22 23 26 28 28 26 25 25 26 27 29 32 35 37 38 39 41 40 38 38 38 36 37 38 35 32 31 29 27 27 26 25 23 23 23 22 20 19 18 18 18 18
36 34 33 32 32 33 33 32 32 32 32 32 31 30 31 32 31 32 34 35 36 37 36 35 35 34 34 35 34 33 33 33 32 31 30 28 26 25 26 27 27 26 24 22 23 23 22 24 27 29 31 30 27 26 26 27 29 31 34 36 37 37 39 40 41 40 38 36 37 38 37 37 35 32 28 26 26 26 25 24 24 23 21 19 18 18 19 20
35 34 33 32 31 30 30 30 30 31 32 32 31 31 31 32 31 30 31 33 34 36 35 35 37 37 35 34 33 32 32 32 32 33 31 30 28 26 26 27 28 28 26 25 24 23 23 24 26 28 30 31 31 29 29 29 29 31 32 35 37 38 39 40 41 42 40 39 38 35 36 39 39 37 35 30 26 25 24 25 26 26 24 21 19 19 20 21
33 32 32 31 31 31 30 30 31 31 31 31 31 31 32 32 32 31 29 30 32 34 35 35 35 36 37 36 33 32 32 31 31 31 31 31 30 29 27 27 28 28 28 26 24 23 23 24 25 27 28 30 31 31 31 31 31 32 34 35 36 38 40 40 41 42 42 42 41 38 38 39 38 38 40 37 33 30 27 26 27 27 26 23 21 22 22 22
30 30 29 29 30 30 30 30 30 30 30 30 30 30 31 31 31 30 29 30 30 31 33 33 32 31 34 36 34 33 32 30 29 28 29 30 30 29 28 28 27 28 29 27 25 24 24 23 23 24 25 27 29 30 30 32 32 33 34 35 36 37 38 40 40 41 41 42 42 42 42 40 37 36 38 38 38 36 33 31 31 30 28 25 23 23 23 22
29 29 29 28 29 29 28 28 28 28 28 28 29 29 29 30 29 29 30 31 31 30 30 30 29 28 29 31 33 32 30 29 29 27 26 28 29 28 28 27 26 27 28 27 25 24 24 23 22 22 23 24 26 28 30 30 31 33 34 35 36 36 36 37 38 39 40 40 40 41 41 40 38 37 37 38 38 37 36 34 33 32 31 28 25 24 24 23
27 27 27 27 27 27 27 26 26 27 27 27 27 28 28 29 28 28 29 30 30 30 28 27 28 28 28 29 29 29 28 28 29 29 28 28 29 29 28 28 28 27 27 27 26 24 23 22 21 22 23 22 22 24 26 27 28 30 32 34 36 36 36 36 37 38 39 39 39 39 38 37 36 35 36 37 38 39 37 36 34 32 30 29 27 26 25 23
Wind_Direction
317 316 316 315 315 315 314 313 312 311 309 306 304 302 300 299 297 296 296 295 296 296 298 299 298 295 294 295 294 294 293 285 273 262 256 256 248 234 230 222 212 207 205 202 199 197 196 198 198 195 193 194 207 211 201 202 203 198 206 207 177 136 125 123 135 126 117 142 151 150 156 146 133 141 135 138 145 143 148 149 152 157 157 153 150 154 157 157
315 315 314 314 313 314 313 312 311 311 310 309 307 305 303 300 298 296 295 294 293 294 294 295 295 293 291 291 291 291 290 282 270 262 255 246 240 233 227 219 211 208 205 204 203 200 199 200 198 197 198 203 208 203 200 200 200 205 213 209 199 147 125 125 136 137 138 146 152 157 162 158 146 145 148 155 153 150 152 150 153 153 149 147 148 154 157 159
314 313 313 312 312 312 312 312 311 310 309 309 308 307 306 304 301 298 295 293 291 291 291 291 291 291 289 286 287 287 285 279 269 254 234 228 238 233 222 216 210 207 206 206 206 205 205 203 199 200 205 211 209 202 204 200 200 211 216 213 197 172 160 156 159 161 155 150 155 160 163 162 151 146 156 163 157 161 162 155 157 157 153 152 152 156 158 161
313 313 312 311 311 310 310 310 310 310 310 309 308 307 306 305 304 301 298 294 291 288 287 287 287 288 287 284 282 281 279 274 261 231 212 225 242 232 220 213 207 206 206 207 207 207 209 206 201 204 210 214 212 209 212 203 203 207 208 214 191 174 195 178 180 183 171 163 163 161 162 163 153 149 159 163 159 167 169 163 162 158 156 156 155 157 160 163
314 313 312 311 310 309 309 308 308 308 309 309 308 307 306 305 304 303 300 297 293 288 285 284 284 284 283 281 276 272 270 263 242 217 217 234 245 237 224 213 205 205 205 206 208 208 210 208 204 208 214 216 213 213 216 209 210 212 211 222 216 206 215 179 187 192 180 172 167 167 168 161 154 157 162 164 162 164 168 167 164 158 156 157 157 157 161 163
314 313 312 311 310 309 308 307 307 306 307 307 307 307 306 305 304 302 301 299 296 291 285 282 281 280 278 277 271 263 256 247 240 236 236 243 244 239 230 216 208 207 206 207 208 207 208 207 206 209 213 216 215 213 217 211 211 218 217 221 223 219 221 202 198 194 187 182 173 172 172 162 161 164 163 168 162 148 162 163 159 157 156 156 157 158 161 164
314 313 312 311 310 309 308 307 306 306 305 305 305 305 304 304 303 302 301 299 297 294 289 283 278 275 273 271 265 258 248 244 250 250 245 243 237 235 232 218 211 210 208 207 207 207 206 207 208 210 213 215 216 216 217 211 211 221 220 216 217 215 220 224 211 201 196 191 179 173 173 171 172 166 163 172 160 137 157 159 156 157 157 157 157 160 162 163
313 313 312 312 311 310 309 307 306 306 305 304 304 303 303 302 301 301 300 298 297 295 292 286 278 272 267 264 261 258 249 245 250 249 242 235 228 230 230 218 213 211 210 208 207 207 207 208 209 210 213 214 215 215 213 212 216 221 222 220 218 215 221 228 220 208 200 193 181 175 177 177 174 165 166 174 161 147 157 156 156 157 158 160 161 162 162 164
312 312 312 311 311 310 309 308 307 306 305 303 303 302 301 301 300 299 298 297 295 294 291 287 280 270 262 259 258 257 252 245 244 241 235 231 230 231 228 221 216 213 213 211 208 208 209 209 210 210 214 216 215 214 211 213 218 220 221 223 222 221 224 224 221 212 201 192 181 180 182 179 173 166 172 176 163 153 159 158 160 161 162 164 164 164 163 165
311 311 311 310 310 310 309 308 307 307 305 304 302 301 300 299 298 297 296 295 293 292 289 285 280 269 261 257 254 252 250 245 241 237 234 234 236 235 234 228 219 216 215 212 210 210 209 210 210 211 217 218 215 214 212 213 218 218 218 222 227 230 227 220 218 209 200 190 184 184 185 181 176 176 179 175 166 159 161 164 165 165 166 167 167 166 165 167
310 309 309 309 309 309 308 308 307 307 306 305 303 301 299 298 296 295 294 293 291 288 285 282 275 267 263 257 251 250 249 247 243 238 236 237 238 239 238 231 222 219 217 214 212 211 210 211 210 210 215 217 214 216 216 214 217 217 217 222 227 232 227 217 212 201 195 191 190 187 184 185 185 191 187 171 169 167 165 166 168 170 170 171 170 168 167 170
311 309 308 308 308 307 307 307 307 306 306 305 303 302 300 298 296 294 292 291 288 284 282 278 269 266 267 258 252 252 252 250 245 240 238 237 238 240 237 230 223 220 219 215 212 210 210 210 209 208 211 214 213 215 216 212 215 217 218 223 221 225 225 214 204 195 192 191 189 184 184 196 199 199 189 170 169 170 169 168 170 174 173 174 174 171 171 173
311 309 309 308 307 306 306 306 306 305 305 304 303 301 299 298 296 293 291 288 284 281 279 273 265 265 266 261 258 257 253 248 244 241 240 238 237 235 231 227 223 220 220 217 212 209 210 211 210 210 211 214 213 212 212 210 212 215 217 223 219 221 223 210 197 191 193 192 186 186 192 201 203 201 189 173 172 172 173 173 173 176 176 177 178 176 176 177
311 310 309 308 306 306 305 305 305 304 303 302 301 299 298 297 295 293 290 286 282 278 274 268 265 265 263 263 266 263 254 246 244 241 237 235 232 229 225 223 220 219 219 216 212 208 210 212 211 212 212 214 214 210 212 211 212 212 213 218 219 223 216 201 196 190 192 191 188 196 208 199 192 193 186 176 178 178 179 178 177 178 179 181 181 182 183 182
311 310 309 308 307 306 306 305 304 303 302 301 300 298 296 294 293 291 287 284 281 275 271 267 266 266 266 267 268 264 254 243 239 235 232 231 228 225 221 219 218 217 215 214 213 210 210 211 212 212 211 213 214 210 212 214 212 211 212 213 214 221 207 196 199 195 192 191 192 202 212 205 186 182 179 177 181 184 186 184 181 182 182 185 186 187 188 186
312 310 309 308 308 307 307 306 304 303 302 300 299 296 294 292 289 286 283 282 278 273 270 269 266 266 270 270 262 258 252 240 233 230 231 232 229 225 218 215 215 214 214 213 213 211 210 212 212 213 212 211 212 211 212 214 212 210 213 214 212 215 207 199 203 200 196 192 196 203 206 204 190 180 178 179 183 185 190 190 186 186 186 187 189 191 193 191
312 311 309 309 308 308 307 306 305 304 302 300 298 296 293 290 285 282 280 277 275 273 271 271 268 266 267 264 258 255 250 240 232 232 236 235 230 224 216 214 215 214 213 212 213 212 210 211 211 212 214 212 211 211 212 212 210 208 212 216 215 214 210 203 203 201 199 197 199 204 207 204 185 180 183 185 187 188 192 193 190 190 190 190 192 194 196 195
311 310 310 309 308 307 306 306 305 304 302 300 297 294 291 287 283 279 277 274 273 272 271 270 265 266 265 254 252 254 248 241 237 239 242 236 228 221 216 216 215 212 212 211 212 211 208 209 210 212 213 213 212 211 211 211 209 207 209 212 214 215 212 207 204 200 199 201 203 204 209 210 195 187 190 190 191 194 195 196 194 194 194 194 195 197 198 199
310 310 309 308 308 307 306 305 304 303 302 299 297 293 287 285 281 276 273 271 268 268 270 265 255 264 269 255 252 256 253 247 246 246 241 232 223 218 218 219 214 212 214 212 211 210 208 209 210 212 212 211 211 211 212 214 213 212 211 211 213 214 213 212 210 203 200 204 207 205 208 212 207 199 197 195 194 198 199 198 199 199 198 199 199 201 201 202
309 308 308 308 307 306 305 304 303 302 300 298 297 292 285 284 282 277 274 270 266 266 269 265 257 262 268 262 259 260 256 250 247 245 237 228 222 217 218 219 216 216 217 214 212 211 210 212 212 212 212 210 210 212 215 218 219 216 214 215 217 218 216 213 210 204 200 205 210 209 211 213 213 209 204 202 199 200 202 201 203 204 202 203 203 204 204 205
307 306 307 307 306 306 304 303 302 299 297 295 294 289 285 287 285 283 283 277 269 265 265 264 260 261 262 261 261 260 257 250 244 240 234 227 221 218 218 217 217 219 218 215 213 211 213 216 215 213 213 213 212 214 216 219 220 217 215 217 219 221 222 213 207 204 202 208 212 212 216 217 217 214 209 208 206 205 206 206 208 209 208 209 208 208 208 207
305 305 305 305 305 305 303 303 301 296 293 292 289 285 283 286 285 284 285 281 275 268 263 262 260 259 259 259 258 255 253 249 243 238 231 225 221 220 219 217 219 220 217 216 214 213 216 219 217 214 214 216 215 215 217 220 220 219 219 219 219 220 220 211 206 205 204 210 214 214 219 223 222 220 216 216 215 214 214 215 216 214 212 213 212 211 210 210
303 303 304 303 304 303 302 302 298 291 291 291 285 281 280 283 286 285 281 279 278 270 260 258 257 256 257 258 254 248 246 246 243 236 228 224 223 222 220 219 220 220 217 217 217 217 219 220 218 215 215 215 214 214 217 221 222 223 222 220 220 219 217 213 209 207 206 212 219 220 224 227 227 225 222 223 224 222 221 221 222 220 217 216 216 215 213 213
302 302 302 303 303 301 301 300 292 287 291 289 281 276 278 284 287 287 281 276 277 270 259 257 256 255 256 256 250 244 244 244 241 235 226 223 223 222 223 221 220 221 220 219 220 221 222 221 218 216 215 214 213 214 216 220 223 223 223 221 222 220 218 217 212 209 212 217 221 224 229 231 230 228 224 225 227 226 224 223 224 223 222 221 219 217 217 216
302 301 301 302 301 300 300 294 285 288 291 286 278 271 277 285 287 287 281 276 275 268 259 257 256 255 252 250 247 243 246 244 239 235 226 223 224 223 224 223 222 223 222 220 221 223 223 220 216 216 215 214 216 216 216 219 222 223 222 221 223 223 222 220 213 210 216 220 218 220 230 235 231 228 226 224 225 225 224 224 224 224 223 224 222 219 219 219
301 300 300 300 299 300 297 287 284 290 288 281 276 273 277 283 285 283 279 275 272 265 259 258 255 252 247 244 242 242 247 245 237 234 229 225 225 225 225 224 224 225 222 220 223 225 223 219 216 217 217 216 218 219 216 216 221 224 221 219 223 225 224 221 215 213 220 223 219 218 227 236 233 229 226 223 222 225 226 225 224 223 222 223 223 222 221 220
300 299 298 298 297 297 291 284 286 288 282 277 278 277 278 280 281 280 275 272 269 262 258 255 252 247 245 241 235 238 247 244 236 231 228 227 225 225 227 224 223 226 223 220 224 226 222 219 217 217 219 218 218 220 216 214 220 224 221 218 220 223 224 222 218 220 225 226 224 222 226 234 236 231 226 222 222 224 227 226 225 223 222 221 223 223 223 223
298 297 296 295 294 291 283 280 283 283 278 277 277 276 277 277 276 273 271 269 265 260 254 248 247 244 243 239 233 240 251 245 241 233 225 226 224 225 229 226 224 225 221 220 225 224 221 221 219 217 219 220 220 220 216 215 218 223 224 218 217 221 224 223 222 224 227 227 227 225 225 231 236 233 227 223 222 226 229 228 226 224 223 222 223 224 225 225
298 296 295 294 292 286 278 275 276 276 276 276 275 274 275 273 269 266 265 264 260 257 252 243 241 239 237 239 238 243 250 247 247 238 225 224 225 227 232 230 227 225 222 223 226 225 223 224 221 218 220 221 220 220 219 217 216 219 221 216 215 220 223 224 225 226 226 226 225 223 221 228 236 233 227 224 224 228 231 230 227 224 224 223 223 225 226 226
297 295 294 293 289 283 278 274 272 272 273 272 271 271 271 266 262 259 256 258 259 254 248 242 240 237 235 239 239 239 244 246 244 237 228 225 225 229 234 232 229 228 226 226 228 228 225 223 222 220 220 221 221 221 220 218 215 215 218 216 216 221 222 224 226 227 229 228 224 224 221 223 234 233 226 225 225 227 231 231 228 225 223 223 222 223 224 225
296 294 293 291 285 279 277 274 271 270 269 269 269 266 264 259 256 255 252 257 260 250 243 241 237 235 236 239 240 237 240 243 238 232 230 227 224 226 229 230 228 228 228 227 228 228 226 222 222 222 220 220 220 221 220 218 216 216 218 218 219 220 220 223 224 224 230 229 225 227 224 222 232 234 227 225 224 227 234 234 231 228 224 222 221 222 223 224
295 293 291 288 282 275 271 270 270 269 267 267 265 260 256 254 252 251 251 257 257 247 243 240 234 234 237 240 242 240 242 243 236 232 231 228 227 226 226 226 224 224 227 227 227 228 227 226 223 222 220 218 219 219 219 218 217 216 217 218 218 217 218 221 222 222 228 230 228 229 226 224 232 235 231 228 224 226 232 234 235 235 231 227 223 222 223 224
294 292 289 285 280 273 269 268 267 265 265 262 259 253 250 252 252 248 246 248 251 251 246 240 236 235 238 239 239 240 244 243 235 232 231 229 230 228 227 227 225 225 228 226 225 226 227 227 223 222 220 218 218 218 218 217 217 215 214 215 217 218 219 221 222 224 228 230 229 229 228 227 232 236 234 231 228 230 235 238 241 242 240 234 225 221 224 225
293 290 287 283 279 273 269 267 264 262 261 256 252 248 246 250 253 249 245 243 246 251 245 240 239 237 237 238 240 240 242 241 234 232 231 229 232 232 228 227 225 227 229 227 226 225 226 227 223 221 220 218 217 219 219 218 218 217 216 217 220 221 222 223 224 227 229 231 227 224 225 228 231 235 233 230 230 234 238 240 241 241 239 234 226 222 224 225
291 288 284 280 276 272 268 264 261 258 256 252 248 245 244 248 251 250 248 244 244 246 243 242 242 240 239 238 240 240 240 240 234 233 233 231 233 234 231 228 225 224 227 228 229 227 228 232 226 220 220 219 218 219 219 218 220 219 217 219 222 222 225 228 230 231 232 233 228 223 226 231 232 233 231 229 230 231 235 238 239 237 232 228 224 222 223 223
289 285 282 278 273 270 267 263 258 254 252 250 247 246 247 248 248 248 249 245 243 244 244 244 242 242 242 239 238 236 236 240 237 234 236 234 235 234 232 231 225 222 225 228 230 228 229 233 226 219 219 220 218 217 217 219 220 218 217 220 223 224 227 231 233 233 232 232 230 226 230 232 231 233 234 234 235 233 234 236 237 235 228 223 223 222 223 223
286 283 281 276 270 267 265 262 257 252 249 248 247 248 249 248 246 247 248 246 245 244 244 244 242 241 241 240 239 235 233 237 237 236 237 235 235 234 231 231 227 224 225 227 230 231 231 233 225 218 219 219 218 218 218 220 221 219 220 220 220 224 228 230 230 228 227 231 231 229 232 230 228 233 235 234 234 234 235 236 237 237 230 226 225 225 225 225
284 282 278 271 267 266 264 261 257 251 248 247 248 249 249 247 245 244 245 246 246 244 242 243 241 239 239 240 239 234 230 233 234 235 236 234 235 233 229 230 228 225 224 225 230 231 230 234 226 219 220 219 217 219 220 220 221 223 224 221 218 222 224 224 227 227 227 231 233 233 235 231 227 230 230 226 226 229 230 230 233 233 228 228 228 226 225 224
283 280 273 267 265 265 263 260 256 250 247 247 248 249 249 248 245 243 243 245 246 244 242 242 241 240 239 238 238 233 229 232 233 232 233 233 233 232 230 229 226 224 223 223 229 230 228 233 230 220 219 218 216 218 219 218 219 222 225 223 222 224 224 224 227 230 231 234 235 235 235 232 229 228 226 222 220 221 222 224 231 235 233 231 229 226 224 222
281 277 270 266 265 265 264 260 254 249 248 248 248 249 248 247 245 243 242 243 243 242 242 241 241 239 238 237 237 234 231 232 232 231 233 232 232 234 231 228 225 224 223 222 226 230 228 230 231 222 216 216 217 218 219 219 217 218 221 222 221 222 224 227 229 230 232 235 236 235 235 233 229 227 225 223 222 224 228 233 238 241 242 238 231 227 224 223
279 273 269 266 265 265 263 258 253 250 249 249 248 248 247 247 246 243 241 241 241 241 241 241 240 239 239 237 236 235 233 233 232 233 234 232 232 236 232 228 227 224 222 222 224 226 227 227 228 223 217 219 221 220 220 222 220 219 221 223 222 222 223 227 230 229 230 234 235 236 238 234 229 226 224 225 228 230 234 240 242 244 247 242 232 228 226 225
276 270 269 269 266 263 260 256 253 251 250 249 248 247 247 247 246 244 241 239 240 240 239 240 240 239 239 238 236 235 235 234 233 233 235 233 231 232 228 227 228 225 222 224 225 224 226 227 227 227 225 224 224 223 222 223 223 224 224 224 224 225 224 226 230 229 230 233 235 238 241 236 230 227 222 224 230 232 233 238 243 245 245 240 232 229 227 226
274 272 272 270 264 259 257 256 254 251 250 249 248 247 246 245 244 243 241 238 237 237 237 238 238 237 238 237 237 236 235 236 235 234 234 234 230 230 231 229 227 224 222 224 224 221 224 227 227 229 232 230 227 226 223 222 223 226 226 225 224 226 226 228 231 232 232 234 233 236 239 235 230 226 221 222 229 232 234 237 240 242 242 237 232 229 227 227
275 273 271 267 261 257 255 254 254 252 250 249 247 246 245 244 243 241 239 237 236 236 236 237 236 236 236 236 236 235 234 235 235 234 234 235 233 231 233 231 227 224 222 223 223 220 222 226 225 227 230 228 226 224 222 221 222 225 227 226 225 226 227 229 231 233 234 234 233 235 238 235 231 229 228 231 233 232 232 233 234 238 242 241 233 227 227 228
275 272 268 264 260 256 255 254 254 253 251 249 248 246 244 243 242 240 238 238 236 235 236 236 235 235 235 234 235 235 234 234 235 234 233 234 233 231 230 229 227 225 224 225 227 224 224 226 225 226 227 226 225 224 223 223 224 226 228 228 227 227 227 228 230 232 234 234 234 236 238 237 234 231 231 232 231 227 227 229 231 235 242 243 235 230 230 229
274 270 268 265 260 257 256 255 253 252 250 251 250 247 244 243 241 238 237 237 236 235 236 236 235 234 233 232 233 233 232 232 233 233 232 232 231 229 227 227 225 224 224 229 231 229 229 229 227 228 231 231 230 229 228 227 226 226 227 228 229 228 228 229 230 231 233 235 235 237 239 239 234 230 228 226 226 228 229 231 233 237 241 242 238 235 233 232
270 268 267 265 262 259 256 253 251 250 250 251 249 246 244 243 241 238 235 234 234 234 235 235 234 233 231 230 231 232 231 230 231 231 232 231 230 227 225 224 224 223 224 228 229 228 230 231 229 230 234 236 236 234 231 229 229 229 228 228 229 230 229 229 231 232 233 236 238 237 237 238 235 232 229 227 227 230 231 233 236 239 241 239 237 237 236 232
266 265 265 263 260 256 254 253 254 253 252 250 248 245 244 243 241 239 235 233 233 232 232 233 232 232 232 231 231 232 230 229 230 230 229 229 229 227 225 224 224 222 222 225 227 227 230 233 232 232 235 236 237 237 235 232 232 231 230 229 229 230 230 231 233 234 234 237 239 238 237 237 237 235 234 233 232 231 233 236 239 241 242 240 237 238 238 234
265 263 262 260 257 255 255 255 255 253 250 248 245 242 242 241 240 238 236 233 232 230 230 231 232 231 231 230 230 231 229 228 228 228 227 227 227 226 226 225 224 222 222 225 227 227 230 233 233 234 236 236 235 236 236 236 234 233 232 232 232 231 232 233 234 235 235 238 240 241 240 240 238 237 237 238 238 238 239 240 240 241 242 241 240 240 240 238
264 262 261 259 256 255 254 252 251 249 246 244 242 240 238 238 237 237 235 233 232 230 228 229 232 233 230 228 229 229 229 229 229 227 226 225 224 224 225 225 224 221 221 223 225 225 228 231 231 235 238 237 235 234 235 237 236 235 234 234 233 233 233 233 233 234 235 237 239 240 242 242 240 239 240 239 239 241 242 241 241 241 241 242 241 240 241 240
262 261 259 258 256 253 250 248 246 246 244 241 239 237 235 234 235 237 236 233 231 230 229 230 232 232 229 227 227 228 229 230 230 229 226 225 224 223 223 224 223 221 219 220 221 222 226 229 231 235 238 236 234 234 234 236 238 237 235 233 233 233 233 234 233 233 234 236 237 239 240 241 241 241 240 239 239 240 240 240 240 240 239 240 240 240 241 240
260 259 256 254 253 251 249 247 244 242 242 239 237 236 235 235 236 237 235 230 227 227 229 232 233 231 228 227 226 227 231 232 232 231 229 228 227 227 225 224 224 223 221 219 220 222 225 227 230 234 236 236 233 233 234 235 236 237 235 233 233 234 235 236 236 235 234 235 236 237 239 242 242 240 239 239 239 239 238 238 239 239 238 237 238 240 241 239